Weather in Kasane

Botswana     17°48′38″S   25°09′02″E
temp.,
°C
wind,
m/s
gust,
m/s
humid.,
%
clouds,
%
prec.,
mm/h
press.,
hPa
HPBL,
m
12 may, wed
wed1223:00+15e22490 0.0 102111
02:00+13se35550 0.0 102084
05:00+12ese24590 0.0 102173
08:00+16ese38490 0.0 1022276
11:00+25e35310 0.0 10201436
14:00+28ese34222 0.0 10152591
17:00+26se35260 0.0 1015634
20:00+18ese311420 0.0 1018220
13 may, thu
thu1323:00+15e26560 0.0 1019101
02:00+13ne11660 0.0 101811
05:00+12ne11700 0.0 101910
08:00+16e24520 0.0 1021184
11:00+26ene35320 0.0 10192035
14:00+29ene23235 0.0 10142783
17:00+27se34268 0.0 1013364
20:00+19ese413414 0.0 1017324
14 may, fri
fri1423:00+15ene24664 0.0 101860
02:00+14e22684 0.0 101714
05:00+13nne22691 0.0 101711
08:00+17ese23550 0.0 1019181
11:00+27ene23280 0.0 10171601
14:00+30ene12210 0.0 10132663
17:00+27ese11260 0.0 101222
20:00+19ese38410 0.0 1016143
15 may, sat
sat1523:00+17e27560 0.0 1017107
02:00+15e23580 0.0 101651
05:00+14ene11610 0.0 101711
08:00+18nne12465 0.0 1018131
11:00+28ne22252 0.0 10161117
14:00+31s12185 0.0 10123170
17:00+28sse11235 0.0 101132
20:00+20ese22335 0.0 101524
16 may, sun
sun1623:00+17ene24450 0.0 101657
02:00+15sse11560 0.0 101617
05:00+14ese115981 0.0 101611
08:00+18ene12455 0.0 1017111
11:00+30ene222366 0.0 10151191
14:00+33sse121659 0.0 10122982
17:00+29e11215 0.0 101111
20:00+20ese2233100 0.0 101523